FW0266 Weather Reports


Display with metric or nautical units.
time (UTC)temp
F
wind
direction
speed
MPH
gust
MPH
rain 1hr
in
rain 24hr
in
rain mn
in
humidity
%
barometer
mb
20260906000044 91 183 11.0 22.0 0.00 0.00 0.00 29 1008.3
20260905234559 91 188 12.0 20.0 0.00 0.00 0.00 28 1008.3
20260905233044 91 193 12.0 22.0 0.00 0.00 0.00 28 1008.4
20260905231544 91 150 12.0 21.0 0.00 0.00 0.00 28 1008.4
20260905230059 90 176 15.0 22.0 0.00 0.00 0.00 28 1008.3
20260905224540 92 141 12.0 22.0 0.00 0.00 0.00 27 1008.4
20260905223038 92 154 15.0 24.0 0.00 0.00 0.00 28 1008.4
20260905221538 92 175 11.0 20.0 0.00 0.00 0.00 27 1008.6
20260905220037 92 146 12.0 21.0 0.00 0.00 0.00 27 1008.5
20260905214536 92 204 12.0 23.0 0.00 0.00 0.00 27 1008.7
20260905213035 92 153 15.0 22.0 0.00 0.00 0.00 27 1008.9
20260905211537 92 185 14.0 24.0 0.00 0.00 0.00 27 1009.1
20260905210032 92 162 15.0 24.0 0.00 0.00 0.00 27 1009.1
20260905204536 92 179 17.0 26.0 0.00 0.00 0.00 27 1009.3
20260905203031 92 176 14.0 26.0 0.00 0.00 0.00 26 1009.4
20260905201526 92 171 15.0 23.0 0.00 0.00 0.00 27 1009.4
20260905200025 92 181 15.0 25.0 0.00 0.00 0.00 27 1009.6
20260905194524 91 162 17.0 25.0 0.00 0.00 0.00 28 1009.8
20260905193022 92 158 14.0 23.0 0.00 0.00 0.00 28 1009.9
20260905191520 91 169 14.0 26.0 0.00 0.00 0.00 28 1010.1
20260905190022 91 155 16.0 25.0 0.00 0.00 0.00 29 1010.4
20260905184521 91 186 13.0 22.0 0.00 0.00 0.00 29 1010.4
20260905183016 90 162 11.0 21.0 0.00 0.00 0.00 29 1010.3
20260905181515 89 256 11.0 21.0 0.00 0.00 0.00 29 1010.5
20260905180012 89 196 9.0 14.0 0.00 0.00 0.00 28 1010.6
20260905174510 88 151 11.0 17.0 0.00 0.00 0.00 28 1010.7
20260905173010 88 160 11.0 18.0 0.00 0.00 0.00 29 1010.6
20260905171510 87 187 11.0 20.0 0.00 0.00 0.00 30 1010.7
20260905170007 87 172 9.0 15.0 0.00 0.00 0.00 29 1010.6
20260905164513 86 135 6.0 14.0 0.00 0.00 0.00 30 1010.6
20260905163003 86 151 6.0 12.0 0.00 0.00 0.00 30 1010.6
20260905161600 85 203 8.0 15.0 0.00 0.00 0.00 30 1010.6
20260905160058 85 169 7.0 17.0 0.00 0.00 0.00 31 1010.5
20260905154605 84 160 5.0 11.0 0.00 0.00 0.00 32 1010.4
20260905153053 83 117 7.0 12.0 0.00 0.00 0.00 33 1010.3
20260905151551 83 129 5.0 11.0 0.00 0.00 0.00 33 1010.3
20260905150048 82 143 5.0 8.0 0.00 0.00 0.00 34 1010.4
20260905144547 81 167 4.0 11.0 0.00 0.00 0.00 30 1010.1
20260905143044 80 115 1.0 7.0 0.00 0.00 0.00 35 1010.0
20260905141541 77 11 1.0 3.0 0.00 0.00 0.00 37 1010.1
20260905140038 0 0.0 0.0 0.00 0.00 0.00 1010.0
20260905134544 0 0.0 0.0 0.00 0.00 0.00 1009.8
20260905133033 0 0.0 0.0 0.00 0.00 0.00 1009.7
20260905131534 0 0.0 0.0 0.00 0.00 0.00 1009.6
20260905130027 0 66 4.0 5.0 0.00 0.00 0.00 1009.6
20260905124525 71 61 4.0 7.0 0.00 0.00 0.00 36 1009.3
20260905123024 73 70 2.0 6.0 0.00 0.00 0.00 36 1009.2
20260905121522 72 65 4.0 6.0 0.00 0.00 0.00 36 1009.2
20260905120025 72 110 2.0 7.0 0.00 0.00 0.00 35 1009.2
20260905114520 73 114 2.0 6.0 0.00 0.00 0.00 32 1009.2
20260905113018 73 100 1.0 3.0 0.00 0.00 0.00 32 1009.1
20260905111517 73 117 0.0 3.0 0.00 0.00 0.00 33 1009.1
20260905110019 74 102 0.0 3.0 0.00 0.00 0.00 32 1009.0
20260905104515 75 91 0.0 6.0 0.00 0.00 0.00 32 1009.0
20260905103013 76 123 3.0 8.0 0.00 0.00 0.00 30 1008.9
20260905101515 77 129 3.0 8.0 0.00 0.00 0.00 28 1008.8
20260905100012 77 112 5.0 9.0 0.00 0.00 0.00 27 1008.8
20260905094513 77 125 7.0 12.0 0.00 0.00 0.00 27 1008.8
20260905093012 75 141 0.0 5.0 0.00 0.00 0.00 26 1008.8
20260905091511 76 150 1.0 9.0 0.00 0.00 0.00 25 1008.7
20260905090011 75 115 1.0 5.0 0.00 0.00 0.00 27 1008.7
20260905084510 75 91 2.0 5.0 0.00 0.00 0.00 26 1008.8
20260905083011 76 106 1.0 8.0 0.00 0.00 0.00 24 1008.9
20260905081509 76 98 2.0 6.0 0.00 0.00 0.00 23 1009.2
20260905080011 76 91 4.0 10.0 0.00 0.00 0.00 23 1009.0
20260905074505 76 104 3.0 8.0 0.00 0.00 0.00 22 1008.9
20260905073005 76 105 5.0 9.0 0.00 0.00 0.00 22 1009.0
20260905071503 76 101 6.0 12.0 0.00 0.00 0.00 21 1009.1
20260905070004 76 98 5.0 11.0 0.00 0.00 0.00 22 1009.1
20260905063200 76 97 4.0 9.0 0.00 0.00 0.00 21 1008.6
20260905061657 76 100 2.0 7.0 0.00 0.00 0.00 21 1008.6
20260905060157 75 108 2.0 8.0 0.00 0.00 0.00 21 1008.4
20260905054655 76 109 3.0 8.0 0.00 0.00 0.00 22 1008.5
20260905053200 76 122 4.0 10.0 0.00 0.00 0.00 23 1008.5
20260905051517 76 119 3.0 8.0 0.00 0.00 0.00 26 1008.4
20260905050048 77 149 4.0 11.0 0.00 0.00 0.00 27 1008.2
20260905044546 78 134 6.0 11.0 0.00 0.00 0.00 27 1008.1
20260905043142 78 143 5.0 11.0 0.00 0.00 0.00 30 1008.1
20260905041539 78 134 4.0 13.0 0.00 0.00 0.00 30 1007.8
20260905040037 78 124 6.0 10.0 0.00 0.00 0.00 31 1007.6
20260905034538 78 146 4.0 7.0 0.00 0.00 0.00 32 1007.7
20260905033036 79 108 5.0 8.0 0.00 0.00 0.00 30 1007.5
20260905031539 80 128 5.0 9.0 0.00 0.00 0.00 30 1007.3
20260905030035 80 110 4.0 7.0 0.00 0.00 0.00 29 1007.1
20260905024534 81 129 3.0 7.0 0.00 0.00 0.00 28 1006.9
20260905023035 82 122 3.0 9.0 0.00 0.00 0.00 27 1006.9
20260905021534 83 166 5.0 9.0 0.00 0.00 0.00 26 1006.9
20260905020044 84 153 6.0 15.0 0.00 0.00 0.00 25 1006.8
20260905014532 86 142 8.0 18.0 0.00 0.00 0.00 22 1006.8
20260905013039 87 165 10.0 20.0 0.00 0.00 0.00 24 1006.7
20260905011548 88 165 14.0 21.0 0.00 0.00 0.00 22 1006.8
20260905010029 89 165 16.0 22.0 0.00 0.00 0.00 21 1006.7
20260905004532 89 202 13.0 22.0 0.00 0.00 0.00 21 1006.5
20260905003032 90 170 14.0 24.0 0.00 0.00 0.00 23 1006.5
20260905001527 90 178 15.0 26.0 0.00 0.00 0.00 23 1006.3